{"data":{"norad_id":68157,"epoch":"2026-05-25T01:25:53.440320Z","epoch_age_seconds":73852,"freshness":"FRESH","line1":"1 68157U 26049R   26145.05964630  .00017212  00000+0  53405-3 0  9991","line2":"2 68157  97.2846 166.7551 0000643 156.8254 203.3018 15.33458136 11356","mean_motion":15.33458136,"eccentricity":6.43e-5,"inclination_deg":97.2846,"raan_deg":166.7551,"arg_perigee_deg":156.8254,"mean_anomaly_deg":203.3018,"bstar":0.00053405,"rev_number":1135,"period_min":93.905400231937,"perigee_km":465.06404514093,"apogee_km":465.94413738526,"semimajor_km":6843.6410912631,"source":"CELESTRAK","updated_at":"2026-05-25T13:38:21.849687Z"}}